TEVEL2-7

Last updated on Sun Sep 14 2025 00:03:10 GMT+0000 (Coordinated Universal Time)

1 63238U 25052AE 25255.68469837 .00009556 00000+0 43231-3 0 9996 2 63238 97.4213 148.0964 0009611 53.7639 306.4484 15.21079568 27688
UTC large
Height (km)
Speed (km/s)
/
Latitude / Longitude
Inclination (degrees)
Orbital Period (minutes)
Azimuth
Elevation
Range (km)
Doppler Factor

Next 0 passes for location: London (51.5072 / 0.1276)

Sorry there are no passes over London.